KAC176 OKKK-ZSPD

Flight info

Callsign KAC176
Flight time N/A
Altitude 33000
Route SESRU5E SESRU G669 KHG A788 SYZ G452 POPOT/N0501F350 G452 RK G202 MERUN G452 LKN G598 SMR G336 KTM B345 NONIM/K0917S1070 B345 OLGUT Y3 ENPAT W260 VAMSI/K0904S1130 W260 BIGOR W9 KDJ V69 WFX B213 ESPEG V154 SNF W269 OLPOV B213 WHA R343 SASAN SAS82A
Aircraft B77W/H-SDE1E2E3FGHIJ2J3J4J5M1RWXY/LB1D1

Departure

Time 2026-05-01 10:08
Airport Kuwait International Airport (OKKK)

Arrival

Time N/A
Airport Shanghai Pudong International Airport (ZSPD)
Time Latitude Longitude Altitude Speed Heading
2026-05-01 09:44 29.24597 47.96228 172 ft 0 kts 65°
2026-05-01 09:58 29.24596 47.96226 171 ft 2 kts 65°
2026-05-01 09:59 29.24585 47.96200 171 ft 4 kts 67°
2026-05-01 09:59 29.24577 47.96171 170 ft 4 kts 82°
2026-05-01 09:59 29.24577 47.96141 170 ft 4 kts 107°
2026-05-01 09:59 29.24590 47.96116 169 ft 4 kts 150°
2026-05-01 10:00 29.24593 47.96114 169 ft 0 kts 155°
2026-05-01 10:03 29.24563 47.96130 169 ft 8 kts 156°
2026-05-01 10:04 29.24515 47.96155 169 ft 8 kts 155°
2026-05-01 10:04 29.24468 47.96180 169 ft 8 kts 155°
2026-05-01 10:04 29.24420 47.96205 169 ft 8 kts 155°
2026-05-01 10:04 29.24373 47.96231 169 ft 8 kts 155°
2026-05-01 10:05 29.24325 47.96256 169 ft 8 kts 155°
2026-05-01 10:05 29.24278 47.96281 169 ft 8 kts 155°
2026-05-01 10:05 29.24231 47.96307 169 ft 8 kts 155°
2026-05-01 10:05 29.24181 47.96322 168 ft 8 kts 192°
2026-05-01 10:06 29.24150 47.96271 166 ft 9 kts 248°
2026-05-01 10:06 29.24118 47.96205 165 ft 10 kts 223°
2026-05-01 10:06 29.24052 47.96189 164 ft 10 kts 182°
2026-05-01 10:06 29.23984 47.96191 164 ft 10 kts 167°
2026-05-01 10:07 29.23894 47.96235 164 ft 27 kts 155°
2026-05-01 10:07 29.23505 47.96443 167 ft 98 kts 155°
2026-05-01 10:07 29.22666 47.96889 167 ft 162 kts 155°
2026-05-01 10:07 29.21524 47.97534 244 ft 202 kts 152°
2026-05-01 10:08 29.18714 47.99029 1143 ft 234 kts 154°
2026-05-01 10:08 29.17453 48.00169 1708 ft 236 kts 119°
2026-05-01 10:08 29.16930 48.01973 2030 ft 245 kts 98°
2026-05-01 10:09 29.16562 48.03926 2473 ft 256 kts 102°
2026-05-01 10:09 29.16108 48.05923 3109 ft 259 kts 104°
2026-05-01 10:09 29.15626 48.07933 3626 ft 269 kts 104°
2026-05-01 10:09 29.15125 48.10031 3996 ft 277 kts 101°
2026-05-01 10:10 29.14932 48.12227 3998 ft 278 kts 89°
2026-05-01 10:10 29.14962 48.14438 4366 ft 279 kts 86°
2026-05-01 10:10 29.15060 48.18954 5648 ft 288 kts 87°
2026-05-01 10:11 29.15088 48.21259 6266 ft 292 kts 88°
2026-05-01 10:11 29.15105 48.23607 6868 ft 296 kts 88°
2026-05-01 10:11 29.15114 48.25976 7448 ft 301 kts 89°
2026-05-01 10:11 29.15119 48.28396 7931 ft 306 kts 89°
2026-05-01 10:12 29.15120 48.30845 7970 ft 310 kts 89°